Home > Weather > Aurora > Past weeks

Flag for USA Past Weather in Aurora, Colorado, USA — Yesterday and Last 2 Weeks

Now
72 °F

Scattered clouds.


Feels Like: 77 °F
Forecast: 59 / 84 °F
Wind: 9 mph from Southeast

Location: Buckley Air Force Base

Current Time: Jun 25, 2016 at 8:54:17 PM

Latest Report: Jun 25, 2016 at 7:58 PM


Visibility: 10 mi

Pressure: 29.96 "Hg (24.76 "Hg at 1647m altitude)

Humidity: 50%

Dew Point: 52 °F

Location of AuroraLocation

Past Weather in Aurora — Graph

°F

Aurora Temperature Yesterday

Maximum temperature yesterday: 89 °F (at 11:58 AM)
Minimum temperature yesterday: 59 °F (at 5:58 AM)
Average temperature yesterday: 74 °F

High & Low Weather Summary for the Past Weeks

 TemperatureHumidityPressure
High97 °F (Jun 21, 2:58 PM)100% (Jun 13, 1:58 AM)30.26 "Hg (Jun 13, 1:58 AM)
Low50 °F (Jun 14, 5:58 AM)10% (Jun 16, 1:58 PM)29.65 "Hg (Jun 15, 7:58 PM)
Average72 °F50%29.91 "Hg
* Reported Jun 10 6:58 PM — Jun 25 6:58 PM, Aurora, Weather by CustomWeather, © 2016

Note: Actual official high and low records may vary slightly from our data, if they occured in-between our weather recording intervals... More about our weather records

Advertising

Aurora Weather History for the Previous 24 Hours

Scroll right to see more
 ConditionsComfort  
Time TempWeatherWind HumidityBarometerVisibility
6:58 PM
Sat, Jun 25
77 °FScattered clouds.6 mph37%29.93 "Hg10 mi
5:58 PM72 °FPartly sunny.16 mph46%29.93 "Hg10 mi
4:58 PM76 °FPartly sunny.17 mph36%29.94 "Hg10 mi
3:58 PM79 °FBroken clouds.17 mph31%29.94 "Hg10 mi
2:58 PM75 °FPartly sunny.14 mph36%29.93 "Hg10 mi
1:58 PM81 °FBroken clouds.13 mph32%29.90 "Hg10 mi
12:58 PM81 °FBroken clouds.12 mph29%29.90 "Hg10 mi
11:58 AM80 °FBroken clouds.8 mph26%29.90 "Hg10 mi
10:58 AM82 °FBroken clouds.10 mph28%29.90 "Hg10 mi
9:58 AM78 °FBroken clouds.6 mph34%29.89 "Hg10 mi
8:58 AM78 °FBroken clouds.3 mph32%29.89 "Hg10 mi
7:58 AM73 °FBroken clouds.3 mph47%29.88 "Hg10 mi
6:58 AM66 °FPartly sunny.3 mph71%29.88 "Hg10 mi
5:58 AM64 °FPassing clouds.5 mph68%29.86 "Hg10 mi
4:58 AM66 °FPassing clouds.7 mph62%29.84 "Hg10 mi
3:58 AM65 °FPartly cloudy.8 mph64%29.82 "Hg10 mi
2:58 AM67 °FOvercast.1 mph60%29.82 "Hg10 mi
1:58 AM68 °FPassing clouds.5 mph56%29.80 "Hg10 mi
12:58 AM67 °FMostly cloudy.7 mph58%29.79 "Hg10 mi
11:58 PM
Fri, Jun 24
67 °FMostly cloudy.9 mph59%29.79 "Hg10 mi
10:58 PM66 °FPassing clouds.2 mph57%29.80 "Hg10 mi
9:58 PM75 °FPassing clouds.6 mph40%29.79 "Hg10 mi
8:58 PM74 °FBroken clouds.6 mph42%29.80 "Hg10 mi
Weather by CustomWeather, © 2016

See weather overviewHow to use our weather pages